📊 Raw Sensor Data

Showing records 47426 to 47450 of 85,085 total

ID Distance (ft) Battery V Battery A Int Temp (°F) Int Humid (%) Ext Temp (°F) Solar V RSSI SNR Time Stamp
37672 -- 3.83 -5 40 41 43 0.00 -72 7 04/13/2025 05:15 AM
37671 15.5 3.77 -5 40 41 43 0.00 -72 7 04/13/2025 05:00 AM
37670 15.5 3.78 -5 40 42 41 0.00 -71 8 04/13/2025 04:45 AM
37669 15.6 3.83 -5 40 41 41 0.00 -72 8 04/13/2025 04:30 AM
37668 15.6 3.78 -5 41 41 43 0.00 -72 8 04/13/2025 04:15 AM
37667 15.6 3.83 -5 42 41 44 0.10 -72 7 04/13/2025 04:00 AM
37666 15.5 3.78 -5 42 42 43 0.00 -73 8 04/13/2025 03:45 AM
37665 15.5 3.78 -5 42 42 44 0.00 -72 8 04/13/2025 03:30 AM
37664 15.5 3.83 -5 42 42 43 0.00 -71 8 04/13/2025 03:15 AM
37663 15.5 3.78 -5 43 43 44 0.00 -71 8 04/13/2025 03:00 AM
37662 15.5 3.78 -5 44 43 45 0.00 -71 8 04/13/2025 02:45 AM
37661 15.5 3.78 -5 47 42 46 0.00 -71 8 04/13/2025 02:30 AM
37660 15.5 3.78 -5 48 42 49 0.00 -72 7 04/13/2025 02:15 AM
37659 15.5 3.79 -5 48 43 50 0.00 -71 7 04/13/2025 02:00 AM
37658 15.5 3.84 -5 49 42 51 0.00 -71 8 04/13/2025 01:45 AM
37657 15.5 3.78 -5 51 42 51 0.00 -71 8 04/13/2025 01:30 AM
37656 15.5 3.79 -5 52 41 53 0.00 -71 8 04/13/2025 01:15 AM
37655 15.5 3.79 -5 53 41 54 0.00 -70 8 04/13/2025 01:00 AM
37654 15.5 3.84 -5 53 41 54 0.00 -71 8 04/13/2025 12:45 AM
37653 15.5 3.79 -5 53 42 55 0.10 -70 7 04/13/2025 12:30 AM
37652 15.5 3.79 -5 53 42 54 0.00 -72 8 04/13/2025 12:15 AM
37651 15.5 3.79 -5 53 42 55 0.10 -70 8 04/13/2025 12:00 AM
37650 15.4 3.79 -5 54 42 56 0.00 -71 7 04/12/2025 11:30 PM
37649 15.5 3.79 -5 54 42 56 0.00 -70 8 04/12/2025 11:15 PM
37648 15.3 3.79 -5 55 42 56 0.00 -70 8 04/12/2025 11:00 PM